This demonstration page uses our WeatherBlox Daily Observations layout. Learn more.

Hourly Observations for June 3, 2016

Temp ( °F °C ) Dew Point ( °F °C ) Humidity (%) Winds ( mph kmh ) Pressure ( in mb ) Visibility ( mi km ) Precip ( " mm )
12:15 am 00:15 Clear 65 18.5 52 11.1 62 62 S 13 20 29.97 1015 10 16.09344 0 0
12:35 am 00:35 Clear 65 18.5 52 11 62 62 S 13 20 29.97 1015 10 16.09344 0 0
12:55 am 00:55 Clear 65 18.5 51 10.8 61 61 S 14 22 29.97 1015 10 16.09344 0 0
1:15 am 01:15 Clear 64 18 51 10.7 63 63 S 13 20 29.97 1015 10 16.09344 0 0
1:35 am 01:35 Clear 64 17.7 51 10.8 64 64 S 12 19 29.97 1015 10 16.09344 0 0
1:55 am 01:55 Clear 64 17.5 51 10.7 65 65 S 13 20 29.97 1015 10 16.09344 0 0
2:15 am 02:15 Clear 63 17.2 51 10.6 65 65 S 13 20 29.94 1014 10 16.09344 0 0
2:35 am 02:35 Clear 63 17.2 51 10.7 66 66 S 12 19 29.94 1014 10 16.09344 0 0
2:55 am 02:55 Clear 62 16.7 51 10.8 68 68 S 12 19 29.94 1014 10 16.09344 0 0
3:15 am 03:15 Clear 62 16.5 51 10.8 69 69 S 10 17 29.94 1014 10 16.09344 0 0
3:35 am 03:35 Clear 61 16.3 51 10.7 70 70 S 9 15 29.94 1014 10 16.09344 0 0
3:55 am 03:55 Clear 61 16 51 10.5 70 70 S 10 17 29.94 1014 10 16.09344 0 0
4:15 am 04:15 Clear 60 15.8 51 10.4 70 70 S 10 17 29.97 1015 10 16.09344 0 0
4:35 am 04:35 Clear 60 15.7 51 10.5 71 71 SSW 8 13 29.97 1015 10 16.09344 0 0
4:55 am 04:55 Clear 60 15.5 51 10.5 72 72 SSW 9 15 29.97 1015 10 16.09344 0 0
5:15 am 05:15 Clear 59 15.2 51 10.5 74 74 S 9 15 29.97 1015 10 16.09344 0 0
5:35 am 05:35 Clear 59 15.2 51 10.8 75 75 S 8 13 29.94 1014 10 16.09344 0 0
5:55 am 05:55 Clear 59 15 52 11.1 78 78 S 8 13 29.94 1014 10 16.09344 0 0
6:15 am 06:15 Sunny 60 15.5 53 11.7 78 78 S 7 11 29.94 1014 10 16.09344 0 0
6:35 am 06:35 Sunny 60 15.3 53 11.8 80 80 S 8 13 29.94 1014 10 16.09344 0 0
6:55 am 06:55 Sunny 60 15.6 54 12.1 80 80 S 7 11 29.97 1015 10 16.09344 0 0
7:15 am 07:15 Sunny 61 16 55 12.6 80 80 S 8 13 29.94 1014 10 16.09344 0 0
7:35 am 07:35 Sunny 62 16.5 56 13.1 80 80 SSW 9 15 29.94 1014 10 16.09344 0 0
7:55 am 07:55 Sunny 62 16.9 56 13.5 81 81 S 8 13 29.94 1014 10 16.09344 0 0
8:15 am 08:15 Sunny 64 18 56 13.6 76 76 S 12 19 29.91 1013 10 16.09344 0 0
8:35 am 08:35 Sunny 65 18.6 56 13.6 73 73 S 13 20 29.91 1013 10 16.09344 0 0
8:55 am 08:55 Sunny 65 18.5 57 13.8 74 74 S 12 19 29.91 1013 10 16.09344 0 0
9:15 am 09:15 Sunny 69 20.5 58 14.2 67 67 S 17 28 29.88 1012 10 16.09344 0 0
9:35 am 09:35 Sunny 71 21.4 57 14.1 63 63 SSW 17 28 29.88 1012 10 16.09344 0 0
9:55 am 09:55 Sunny 73 22.6 57 14 58 58 SSW 21 33 29.88 1012 10 16.09344 0 0
10:15 am 10:15 Sunny 74 23.4 57 13.9 55 55 S 16 26 29.83 1010 10 16.09344 0 0
10:35 am 10:35 Sunny 75 24.1 57 13.8 53 53 SSW 22 35 29.83 1010 10 16.09344 0 0
10:55 am 10:55 Sunny 76 24.5 57 13.9 52 52 S 24 39 29.83 1010 10 16.09344 0 0
11:15 am 11:15 Sunny 77 25.1 57 13.9 50 50 SSW 18 30 29.83 1010 10 16.09344 0 0
11:35 am 11:35 Sunny 78 25.6 58 14.4 50 50 SSW 16 26 29.83 1010 10 16.09344 0 0
11:55 am 11:55 Sunny 78 25.7 57 14 48 48 SSW 21 33 29.83 1010 10 16.09344 0 0
12:15 pm 12:15 Sunny 79 26.2 58 14.5 49 49 SSW 17 28 29.8 1009 10 16.09344 0 0
12:35 pm 12:35 Sunny 79 25.9 58 14.6 50 50 SW 14 22 29.83 1010 10 16.09344 0 0
12:55 pm 12:55 Sunny 79 25.9 58 14.3 49 49 WSW 12 19 29.85 1011 10 16.09344 0 0
1:15 pm 13:15 Sunny 81 27.2 59 14.9 47 47 WSW 13 20 29.83 1010 10 16.09344 0 0
1:35 pm 13:35 Sunny 82 27.5 59 14.8 46 46 SW 9 15 29.8 1009 10 16.09344 0 0
1:55 pm 13:55 Sunny 82 27.7 59 14.9 46 46 SW 7 11 29.83 1010 10 16.09344 0 0
2:15 pm 14:15 Sunny 81 27.4 58 14.5 45 45 W 3 6 29.8 1009 10 16.09344 0 0
2:35 pm 14:35 Sunny 82 27.8 58 14.6 44 44 W 7 11 29.8 1009 10 16.09344 0 0
2:55 pm 14:55 Sunny 83 28.3 57 13.7 41 41 WSW 7 11 29.8 1009 10 16.09344 0 0
3:15 pm 15:15 Sunny 82 28 53 11.9 37 37 Calm 29.8 1009 10 16.09344 0 0
3:35 pm 15:35 Sunny 83 28.4 55 12.9 38 38 NNW 9 15 29.8 1009 10 16.09344 0 0
3:55 pm 15:55 Sunny 83 28.4 54 12.4 37 37 N 16 26 29.83 1010 10 16.09344 0 0
4:15 pm 16:15 Sunny 83 28.5 54 12.3 37 37 NNW 16 26 29.83 1010 10 16.09344 0 0
4:35 pm 16:35 Sunny 84 28.8 54 12.4 36 36 NNE 17 28 29.83 1010 10 16.09344 0 0
4:55 pm 16:55 Sunny 84 28.7 53 11.6 35 35 NNW 15 24 29.8 1009 10 16.09344 0 0
5:15 pm 17:15 Sunny 83 28.3 54 12.1 37 37 N 13 20 29.8 1009 10 16.09344 0 0
5:35 pm 17:35 Sunny 83 28.5 53 11.4 35 35 N 15 24 29.8 1009 10 16.09344 0 0
5:55 pm 17:55 Sunny 83 28.2 49 9.6 31 31 N 16 26 29.83 1010 10 16.09344 0 0
6:15 pm 18:15 Sunny 83 28.2 47 8.2 28 28 N 17 28 29.83 1010 10 16.09344 0 0
6:35 pm 18:35 Sunny 82 27.5 47 8.2 30 30 N 14 22 29.85 1011 10 16.09344 0 0
6:55 pm 18:55 Sunny 81 27.3 47 8.6 31 31 N 17 28 29.85 1011 10 16.09344 0 0
7:15 pm 19:15 Sunny 80 26.6 47 8.3 31 31 N 16 26 29.88 1012 10 16.09344 0 0
7:35 pm 19:35 Sunny 78 25.7 48 9 35 35 N 10 17 29.88 1012 10 16.09344 0 0
7:55 pm 19:55 Sunny 78 25.6 48 8.9 35 35 N 12 19 29.88 1012 10 16.09344 0 0
8:15 pm 20:15 Sunny 77 25.1 49 9.3 37 37 N 7 11 29.88 1012 10 16.09344 0 0
8:35 pm 20:35 Sunny 74 23.6 52 11.2 46 46 N 5 7 29.88 1012 10 16.09344 0 0
8:55 pm 20:55 Sunny 74 23.5 51 10.5 44 44 N 5 7 29.88 1012 10 16.09344 0 0
9:15 pm 21:15 Clear 72 22.4 51 10.5 47 47 N 6 9 29.91 1013 10 16.09344 0 0
9:35 pm 21:35 Clear 70 21.1 51 10.7 52 52 N 5 7 29.94 1014 10 16.09344 0 0
9:55 pm 21:55 Clear 70 20.9 51 10.7 52 52 N 6 9 29.94 1014 10 16.09344 0 0
10:15 pm 22:15 Clear 72 22.1 49 9.6 45 45 N 7 11 29.94 1014 10 16.09344 0 0
10:35 pm 22:35 Clear 71 21.5 49 9.5 46 46 N 9 15 29.97 1015 10 16.09344 0 0
10:55 pm 22:55 Clear 68 20.2 49 9.5 50 50 N 7 11 29.97 1015 10 16.09344 0 0
11:15 pm 23:15 Clear 67 19.4 48 9 51 51 N 6 9 30 1016 10 16.09344 0 0
11:35 pm 23:35 Clear 67 19.6 47 8.1 48 48 N 5 7 30 1016 10 16.09344 0 0
11:55 pm 23:55 Clear 65 18.4 47 8.5 53 53 NNW 3 6 30 1016 10 16.09344 0 0

Powered by AerisWeather